When you browse on this site, cookies collect data to enhance your experience and personalize the content and advertising you see.
Visit our Privacy Policy to learn more. By continuing to use the site, you agree to this use of cookies and data.
  • In United Kingdom
  • List of Countries
  • For 7 days
  • Water Temperature
  • Satellite Maps
  • Weather Map
  • Weather Widgets
  • user-avatar
    Login

    Hourly Weather Baranovichi

    Today, 19 June, Wednesday

    Time Temperature Precipitation Wind Pressure Humidity
    00:00 +16°C° 0 mm 1 mps 748 mmHg 84%
    01:00 +15°C° 0 mm 1 mps 748 mmHg 84%
    02:00 +15°C° 0 mm 1 mps 748 mmHg 86%
    03:00 +15°C° 0 mm 1 mps 748 mmHg 85%
    04:00 +15°C° 0 mm 1 mps 748 mmHg 85%
    05:00 +15°C° 0 mm 2 mps 748 mmHg 85%
    06:00 +17°C° 0 mm 2 mps 748 mmHg 82%
    07:00 +18°C° 0 mm 2 mps 748 mmHg 79%
    08:00 +20°C° 0 mm 2 mps 748 mmHg 76%
    09:00 +21°C° 0 mm 2 mps 748 mmHg 71%
    10:00 +23°C° 0 mm 2 mps 748 mmHg 67%
    11:00 +25°C° 0 mm 2 mps 748 mmHg 62%
    12:00 +25°C° 0 mm 3 mps 747 mmHg 61%
    13:00 +26°C° 0 mm 3 mps 747 mmHg 60%
    14:00 +26°C° 0 mm 3 mps 747 mmHg 59%
    15:00 +26°C° 0 mm 3 mps 747 mmHg 62%
    16:00 +25°C° 0 mm 3 mps 746 mmHg 65%
    17:00 +25°C° 0 mm 3 mps 746 mmHg 68%
    18:00 +24°C° 0 mm 3 mps 746 mmHg 73%
    19:00 +22°C° 0 mm 3 mps 745 mmHg 77%
    20:00 +20°C° 0 mm 3 mps 745 mmHg 81%
    21:00 +20°C° 0 mm 3 mps 745 mmHg 81%
    22:00 +19°C° 0 mm 3 mps 745 mmHg 81%
    23:00 +19°C° 0 mm 3 mps 745 mmHg 80%

    Tomorrow, 20 June, Thursday

    Time Temperature Precipitation Wind Pressure Humidity
    00:00 +19°C° 0 mm 3 mps 745 mmHg 82%
    01:00 +18°C° 0 mm 3 mps 745 mmHg 84%
    02:00 +18°C° 0 mm 3 mps 745 mmHg 85%
    03:00 +18°C° 0.2 mm 3 mps 745 mmHg 88%
    04:00 +18°C° 0.2 mm 3 mps 745 mmHg 90%
    05:00 +18°C° 0.2 mm 3 mps 744 mmHg 92%
    06:00 +19°C° 0.9 mm 3 mps 744 mmHg 92%
    07:00 +20°C° 0.9 mm 3 mps 744 mmHg 92%
    08:00 +21°C° 0.9 mm 4 mps 744 mmHg 91%
    09:00 +22°C° 1.6 mm 4 mps 744 mmHg 90%
    10:00 +22°C° 1.6 mm 4 mps 744 mmHg 88%
    11:00 +23°C° 1.6 mm 5 mps 744 mmHg 86%
    12:00 +25°C° 1.5 mm 5 mps 744 mmHg 82%
    13:00 +26°C° 1.5 mm 4 mps 744 mmHg 79%
    14:00 +27°C° 1.5 mm 4 mps 743 mmHg 76%
    15:00 +27°C° 1.1 mm 3 mps 743 mmHg 77%
    16:00 +27°C° 1.1 mm 3 mps 743 mmHg 78%
    17:00 +27°C° 1.1 mm 3 mps 743 mmHg 79%
    18:00 +26°C° 0.5 mm 3 mps 743 mmHg 82%
    19:00 +25°C° 0.5 mm 3 mps 743 mmHg 85%
    20:00 +22°C° 0.5 mm 3 mps 743 mmHg 88%
    21:00 +22°C° 0.5 mm 3 mps 743 mmHg 90%
    22:00 +21°C° 0.5 mm 3 mps 743 mmHg 93%
    23:00 +20°C° 0.5 mm 3 mps 743 mmHg 95%

    Day after tomorrow, 21 June, Friday

    Time Temperature Precipitation Wind Pressure Humidity
    00:00 +20°C° 0.2 mm 3 mps 743 mmHg 95%
    01:00 +20°C° 0.2 mm 2 mps 743 mmHg 95%
    02:00 +20°C° 0.2 mm 2 mps 743 mmHg 95%
    03:00 +20°C° 0 mm 2 mps 743 mmHg 95%
    04:00 +20°C° 0 mm 2 mps 743 mmHg 96%
    05:00 +19°C° 0 mm 2 mps 744 mmHg 96%
    06:00 +21°C° 0 mm 2 mps 744 mmHg 93%
    07:00 +22°C° 0 mm 3 mps 744 mmHg 91%
    08:00 +24°C° 0 mm 3 mps 744 mmHg 89%
    09:00 +25°C° 1.4 mm 3 mps 744 mmHg 84%
    10:00 +27°C° 1.4 mm 3 mps 744 mmHg 80%
    11:00 +28°C° 1.4 mm 4 mps 744 mmHg 75%
    12:00 +28°C° 0.7 mm 3 mps 744 mmHg 73%
    13:00 +29°C° 0.7 mm 3 mps 744 mmHg 70%
    14:00 +29°C° 0.7 mm 3 mps 744 mmHg 68%
    15:00 +29°C° 0.5 mm 2 mps 744 mmHg 70%
    16:00 +29°C° 0.5 mm 2 mps 744 mmHg 73%
    17:00 +28°C° 0.5 mm 2 mps 744 mmHg 75%
    18:00 +27°C° 0.3 mm 1 mps 744 mmHg 79%
    19:00 +26°C° 0.3 mm 1 mps 744 mmHg 82%
    20:00 +24°C° 0.3 mm 1 mps 744 mmHg 85%
    21:00 +23°C° 0.1 mm 1 mps 744 mmHg 87%
    22:00 +23°C° 0.1 mm 1 mps 744 mmHg 89%
    23:00 +22°C° 0.1 mm 1 mps 744 mmHg 91%

    22 June, Saturday

    Time Temperature Precipitation Wind Pressure Humidity
    00:00 +22°C° 0.8 mm 1 mps 744 mmHg 92%
    01:00 +21°C° 0.8 mm 1 mps 745 mmHg 94%
    02:00 +20°C° 0.8 mm 2 mps 745 mmHg 96%
    03:00 +20°C° 0.6 mm 2 mps 745 mmHg 96%
    04:00 +20°C° 0.6 mm 2 mps 745 mmHg 96%
    05:00 +20°C° 0.6 mm 2 mps 745 mmHg 96%
    06:00 +22°C° 0 mm 1 mps 744 mmHg 93%
    07:00 +23°C° 0 mm 1 mps 744 mmHg 89%
    08:00 +24°C° 0 mm 1 mps 744 mmHg 86%
    09:00 +25°C° 0.4 mm 2 mps 745 mmHg 83%
    10:00 +26°C° 0.4 mm 2 mps 745 mmHg 79%
    11:00 +26°C° 0.4 mm 3 mps 745 mmHg 75%
    12:00 +27°C° 0.5 mm 3 mps 745 mmHg 74%
    13:00 +27°C° 0.5 mm 3 mps 745 mmHg 74%
    14:00 +27°C° 0.5 mm 3 mps 745 mmHg 73%
    15:00 +27°C° 0.4 mm 3 mps 745 mmHg 75%
    16:00 +26°C° 0.4 mm 3 mps 745 mmHg 78%
    17:00 +26°C° 0.4 mm 3 mps 745 mmHg 81%
    18:00 +25°C° 0.5 mm 3 mps 745 mmHg 84%
    19:00 +24°C° 0.5 mm 3 mps 745 mmHg 87%
    20:00 +22°C° 0.5 mm 3 mps 745 mmHg 90%
    21:00 +22°C° 1.1 mm 3 mps 745 mmHg 91%
    22:00 +21°C° 1.1 mm 3 mps 745 mmHg 93%
    23:00 +20°C° 1.1 mm 4 mps 745 mmHg 95%

    23 June, Sunday

    Time Temperature Precipitation Wind Pressure Humidity
    00:00 +20°C° 0.2 mm 4 mps 745 mmHg 96%
    01:00 +20°C° 0.2 mm 4 mps 745 mmHg 96%
    02:00 +20°C° 0.2 mm 4 mps 745 mmHg 97%
    03:00 +20°C° 1.1 mm 4 mps 745 mmHg 97%
    04:00 +20°C° 1.1 mm 4 mps 745 mmHg 97%
    05:00 +19°C° 1.1 mm 4 mps 744 mmHg 98%
    06:00 +20°C° 1.1 mm 4 mps 744 mmHg 97%
    07:00 +21°C° 1.1 mm 4 mps 744 mmHg 96%
    08:00 +21°C° 1.1 mm 4 mps 744 mmHg 95%
    09:00 +22°C° 0.5 mm 4 mps 744 mmHg 92%
    10:00 +24°C° 0.5 mm 3 mps 744 mmHg 89%
    11:00 +25°C° 0.5 mm 2 mps 744 mmHg 85%
    12:00 +26°C° 1.2 mm 2 mps 743 mmHg 83%
    13:00 +26°C° 1.2 mm 2 mps 743 mmHg 80%
    14:00 +27°C° 1.2 mm 2 mps 743 mmHg 77%
    15:00 +27°C° 1.3 mm 2 mps 742 mmHg 80%
    16:00 +26°C° 1.3 mm 2 mps 742 mmHg 83%
    17:00 +26°C° 1.3 mm 1 mps 742 mmHg 86%
    18:00 +25°C° 0.5 mm 2 mps 742 mmHg 87%
    19:00 +24°C° 0.5 mm 2 mps 742 mmHg 88%
    20:00 +23°C° 0.5 mm 2 mps 742 mmHg 89%
    21:00 +21°C° 0 mm 2 mps 742 mmHg 90%
    22:00 +22°C° 0 mm 1 mps 742 mmHg 92%
    23:00 +21°C° 0 mm 1 mps 742 mmHg 93%

    24 June, Monday

    Time Temperature Precipitation Wind Pressure Humidity
    00:00 +21°C° 0 mm 1 mps 742 mmHg 94%
    01:00 +20°C° 0 mm 1 mps 742 mmHg 95%
    02:00 +20°C° 0 mm 1 mps 742 mmHg 96%
    03:00 +19°C° 0.1 mm 2 mps 743 mmHg 96%
    04:00 +19°C° 0.1 mm 2 mps 743 mmHg 97%
    05:00 +19°C° 0.1 mm 3 mps 743 mmHg 97%
    06:00 +19°C° 0 mm 3 mps 743 mmHg 96%
    07:00 +20°C° 0 mm 3 mps 744 mmHg 95%
    08:00 +20°C° 0 mm 4 mps 744 mmHg 94%
    09:00 +20°C° 0 mm 4 mps 744 mmHg 93%
    10:00 +20°C° 0 mm 4 mps 745 mmHg 92%
    11:00 +19°C° 0 mm 5 mps 745 mmHg 91%
    12:00 +19°C° 0 mm 5 mps 745 mmHg 90%
    13:00 +19°C° 0 mm 6 mps 746 mmHg 89%
    14:00 +20°C° 0 mm 6 mps 746 mmHg 87%
    15:00 +19°C° 0 mm 6 mps 746 mmHg 87%
    16:00 +19°C° 0 mm 6 mps 747 mmHg 87%
    17:00 +19°C° 0 mm 6 mps 747 mmHg 86%
    18:00 +19°C° 0 mm 6 mps 747 mmHg 86%
    19:00 +19°C° 0 mm 5 mps 747 mmHg 86%
    20:00 +17°C° 0 mm 5 mps 748 mmHg 86%
    21:00 +17°C° 0 mm 5 mps 748 mmHg 85%
    22:00 +16°C° 0 mm 5 mps 749 mmHg 84%
    23:00 +16°C° 0 mm 5 mps 749 mmHg 84%
    Show more